Location: Wellington
(41.3000°S, 174.7830°E)
Time: 16:07:07
(UTC+12:00)

Cosmos 1844 Rocket - Pass Details

Date: 24 January 2019
Orbit: 826 x 843 km, 71.0° (Epoch: 20 April)

Event Time Altitude Azimuth Distance (km) Brightness Sun altitude
Rises 22:51:29 0° 199° (SSW) 3,413 7.1 -18.9°
Reaches altitude 10° 22:54:02 10° 193° (SSW) 2,475 6.1 -19.2°
Maximum altitude 22:59:31 47° 119° (ESE) 1,107 3.2 -19.8°
Enters shadow 23:01:33 33° 69° (ENE) 1,377 3.3 -20.1°
